User: anonymous
Location: Muenchen
(48.1800°N, 11.5800°E)
Time: 06:23:16
(UTC+02:00)
Language:

Sich 1 Rocket - Orbit

View from above orbital plane
View from above orbital plane
View from above satellite
View from above satellite

Ground track
Ground track

The orbit data is extracted from the following two-line orbital elements,

1 23659U 95046C   14273.76458058  .00000272  00000-0  34576-4 0   350
2 23659 082.5300 144.2623 0024922 230.2909 175.1599 14.77821917 28241
Epoch (UTC): 30 September 2014 18:20:59
Eccentricity: 0.0024922
inclination: 82.5300°
perigee height: 619 km
apogee height: 653 km
right ascension of ascending node: 144.2623°
argument of perigee: 230.2909°
revolutions per day: 14.77821917
mean anomaly at epoch: 175.1599°
orbit number at epoch: 2824

The dashed part of the orbit path shows where the satellite is in the earth's shadow,  

DLR